EW5980 Weather Reports


Display with metric or nautical units.
time (UTC)temp
F
wind
direction
speed
MPH
gust
MPH
rain 1hr
in
rain 24hr
in
rain mn
in
humidity
%
barometer
mb
20260504044546 60 0.0 0.0 0.00 0.00 0.00 67 1018.5
20260504043045 61 0.0 0.0 0.00 0.00 0.00 68 1018.5
20260504041543 61 0.0 0.0 0.00 0.00 0.00 70 1018.4
20260504040100 61 0.0 0.0 0.00 0.00 0.00 71 1018.5
20260504034541 62 0.0 0.0 0.00 0.00 0.00 72 1018.5
20260504033038 62 0.0 0.0 0.00 0.00 0.00 71 1018.6
20260504031545 63 0.0 0.0 0.00 0.00 0.00 71 1018.6
20260504030045 63 0.0 0.0 0.00 0.00 0.00 70 1018.5
20260504024541 64 0.0 0.0 0.00 0.00 0.00 69 1018.6
20260504023047 64 0.0 0.0 0.00 0.00 0.00 67 1018.5
20260504021540 65 0.0 0.0 0.00 0.00 0.00 65 1018.3
20260504020039 66 0.0 0.0 0.00 0.00 0.00 63 1018.2
20260504014550 66 0.0 0.0 0.00 0.00 0.00 60 1018.1
20260504013045 67 0.0 0.0 0.00 0.00 0.00 59 1018.0
20260504011542 68 0.0 0.0 0.00 0.00 0.00 57 1018.0
20260504010050 69 0.0 0.0 0.00 0.00 0.00 55 1017.8
20260504004545 70 0.0 0.0 0.00 0.00 0.00 53 1017.8
20260504003055 71 0.0 0.0 0.00 0.00 0.00 52 1017.7
20260504001551 71 0.0 0.0 0.00 0.00 0.00 51 1017.5
20260504000042 72 0.0 0.0 0.00 0.00 0.00 48 1017.5
20260503234542 73 0.0 0.0 0.00 0.00 0.00 49 1017.5
20260503233043 74 0.0 0.0 0.00 0.00 0.00 46 1017.6
20260503231540 74 0.0 0.0 0.00 0.00 0.00 46 1017.5
20260503230038 75 0.0 0.0 0.00 0.00 0.00 43 1017.8
20260503224536 75 0.0 0.0 0.00 0.00 0.00 43 1017.8
20260503223043 75 0.0 0.0 0.00 0.00 0.00 43 1017.8
20260503221549 75 0.0 0.0 0.00 0.00 0.00 43 1018.0
20260503220041 76 0.0 0.0 0.00 0.00 0.00 43 1018.1
20260503214539 76 0.0 0.0 0.00 0.00 0.00 41 1018.2
20260503213044 77 0.0 0.0 0.00 0.00 0.00 41 1018.3
20260503211545 77 0.0 0.0 0.00 0.00 0.00 39 1018.5
20260503210042 77 0.0 0.0 0.00 0.00 0.00 39 1018.7
20260503204544 77 0.0 0.0 0.00 0.00 0.00 40 1018.9
20260503203044 77 0.0 0.0 0.00 0.00 0.00 40 1019.1
20260503201541 78 0.0 0.0 0.00 0.00 0.00 39 1019.3
20260503200050 78 0.0 0.0 0.00 0.00 0.00 39 1019.5
20260503194543 78 0.0 0.0 0.00 0.00 0.00 38 1019.8
20260503193047 78 0.0 0.0 0.00 0.00 0.00 37 1020.1
20260503191541 78 0.0 0.0 0.00 0.00 0.00 38 1020.4
20260503190043 79 0.0 0.0 0.00 0.00 0.00 37 1020.7
20260503184537 79 0.0 0.0 0.00 0.00 0.00 36 1020.9
20260503183100 78 0.0 0.0 0.00 0.00 0.00 34 1021.0
20260503181613 79 0.0 0.0 0.00 0.00 0.00 35 1021.4
20260503180043 77 0.0 0.0 0.00 0.00 0.00 36 1021.6
20260503174543 77 0.0 0.0 0.00 0.00 0.00 35 1021.8
20260503173040 78 0.0 0.0 0.00 0.00 0.00 36 1022.0
20260503171538 78 0.0 0.0 0.00 0.00 0.00 34 1022.1
20260503081546 53 0.0 0.0 0.00 0.00 0.00 28 1020.0